When you browse on this site, cookies collect data to enhance your experience and personalize the content and advertising you see.
Visit our Privacy Policy to learn more. By continuing to use the site, you agree to this use of cookies and data.
  • In Portugal
  • List of Countries
  • For 7 days
  • Water Temperature
  • Satellite Maps
  • Weather Map
  • Weather Widgets
  • user-avatar
    Login

    Hourly Weather Parakou

    Today, 27 May, Monday

    Time Temperature Precipitation Wind Pressure Humidity
    00:00 +30°C° 0 mm 3 mps 727 mmHg 63%
    01:00 +29°C° 0 mm 3 mps 727 mmHg 66%
    02:00 +29°C° 0 mm 3 mps 727 mmHg 69%
    03:00 +28°C° 0 mm 3 mps 726 mmHg 71%
    04:00 +28°C° 0 mm 3 mps 727 mmHg 73%
    05:00 +27°C° 0 mm 3 mps 727 mmHg 75%
    06:00 +27°C° 0 mm 3 mps 727 mmHg 76%
    07:00 +29°C° 0 mm 3 mps 727 mmHg 70%
    08:00 +30°C° 0 mm 4 mps 727 mmHg 63%
    09:00 +33°C° 0 mm 4 mps 727 mmHg 57%
    10:00 +35°C° 0 mm 4 mps 727 mmHg 51%
    11:00 +37°C° 0 mm 4 mps 727 mmHg 44%
    12:00 +40°C° 0 mm 4 mps 726 mmHg 38%
    13:00 +40°C° 0 mm 3 mps 726 mmHg 35%
    14:00 +40°C° 0 mm 3 mps 725 mmHg 32%
    15:00 +41°C° 0 mm 2 mps 724 mmHg 30%
    16:00 +40°C° 0 mm 2 mps 724 mmHg 33%
    17:00 +38°C° 0 mm 2 mps 724 mmHg 36%
    18:00 +36°C° 0 mm 2 mps 725 mmHg 40%
    19:00 +35°C° 1 mm 2 mps 725 mmHg 48%
    20:00 +33°C° 1 mm 3 mps 725 mmHg 56%
    21:00 +30°C° 1 mm 3 mps 726 mmHg 65%
    22:00 +30°C° 0.9 mm 3 mps 726 mmHg 71%
    23:00 +29°C° 0.9 mm 3 mps 726 mmHg 76%

    Tomorrow, 28 May, Tuesday

    Time Temperature Precipitation Wind Pressure Humidity
    00:00 +28°C° 0.9 mm 3 mps 727 mmHg 82%
    01:00 +27°C° 0.2 mm 3 mps 727 mmHg 84%
    02:00 +27°C° 0.2 mm 3 mps 726 mmHg 85%
    03:00 +26°C° 0.2 mm 3 mps 726 mmHg 87%
    04:00 +26°C° 0 mm 3 mps 726 mmHg 87%
    05:00 +26°C° 0 mm 3 mps 726 mmHg 87%
    06:00 +26°C° 0 mm 3 mps 727 mmHg 87%
    07:00 +28°C° 0 mm 3 mps 727 mmHg 80%
    08:00 +29°C° 0 mm 3 mps 727 mmHg 72%
    09:00 +30°C° 0 mm 3 mps 728 mmHg 65%
    10:00 +33°C° 0 mm 3 mps 728 mmHg 58%
    11:00 +35°C° 0 mm 3 mps 727 mmHg 51%
    12:00 +37°C° 0 mm 3 mps 727 mmHg 44%
    13:00 +37°C° 0 mm 3 mps 726 mmHg 42%
    14:00 +38°C° 0 mm 3 mps 726 mmHg 40%
    15:00 +39°C° 0 mm 2 mps 725 mmHg 38%
    16:00 +37°C° 0.1 mm 2 mps 725 mmHg 42%
    17:00 +36°C° 0.1 mm 2 mps 725 mmHg 46%
    18:00 +34°C° 0.1 mm 2 mps 725 mmHg 50%
    19:00 +32°C° 0.6 mm 1 mps 725 mmHg 56%
    20:00 +30°C° 0.6 mm 1 mps 726 mmHg 63%
    21:00 +29°C° 0.6 mm 1 mps 726 mmHg 69%
    22:00 +28°C° 0.2 mm 2 mps 727 mmHg 72%
    23:00 +28°C° 0.2 mm 2 mps 727 mmHg 75%

    Day after tomorrow, 29 May, Wednesday

    Time Temperature Precipitation Wind Pressure Humidity
    00:00 +28°C° 0.2 mm 3 mps 727 mmHg 77%
    01:00 +27°C° 0 mm 3 mps 726 mmHg 80%
    02:00 +27°C° 0 mm 3 mps 726 mmHg 83%
    03:00 +26°C° 0 mm 2 mps 726 mmHg 86%
    04:00 +26°C° 0 mm 2 mps 726 mmHg 86%
    05:00 +26°C° 0 mm 2 mps 727 mmHg 87%
    06:00 +26°C° 0 mm 2 mps 727 mmHg 87%
    07:00 +28°C° 0 mm 3 mps 727 mmHg 78%
    08:00 +30°C° 0 mm 3 mps 728 mmHg 68%
    09:00 +33°C° 0 mm 4 mps 728 mmHg 59%
    10:00 +35°C° 0 mm 4 mps 728 mmHg 53%
    11:00 +37°C° 0 mm 3 mps 727 mmHg 46%
    12:00 +39°C° 0 mm 3 mps 727 mmHg 40%
    13:00 +39°C° 0 mm 3 mps 726 mmHg 38%
    14:00 +39°C° 0 mm 2 mps 725 mmHg 36%
    15:00 +40°C° 0 mm 2 mps 724 mmHg 35%
    16:00 +38°C° 0 mm 2 mps 724 mmHg 37%
    17:00 +37°C° 0 mm 2 mps 725 mmHg 40%
    18:00 +36°C° 0 mm 2 mps 725 mmHg 43%
    19:00 +35°C° 0.2 mm 3 mps 725 mmHg 49%
    20:00 +33°C° 0.2 mm 4 mps 725 mmHg 55%
    21:00 +32°C° 0.2 mm 6 mps 726 mmHg 60%
    22:00 +30°C° 0.9 mm 5 mps 726 mmHg 69%
    23:00 +28°C° 0.9 mm 4 mps 726 mmHg 77%

    30 May, Thursday

    Time Temperature Precipitation Wind Pressure Humidity
    00:00 +27°C° 0.9 mm 3 mps 726 mmHg 85%
    01:00 +27°C° 0.1 mm 3 mps 726 mmHg 85%
    02:00 +27°C° 0.1 mm 3 mps 726 mmHg 86%
    03:00 +26°C° 0.1 mm 3 mps 726 mmHg 87%
    04:00 +27°C° 0 mm 3 mps 726 mmHg 86%
    05:00 +27°C° 0 mm 3 mps 727 mmHg 86%
    06:00 +27°C° 0 mm 3 mps 727 mmHg 86%
    07:00 +27°C° 0 mm 3 mps 727 mmHg 81%
    08:00 +28°C° 0 mm 4 mps 728 mmHg 77%
    09:00 +29°C° 0 mm 4 mps 728 mmHg 73%
    10:00 +32°C° 0 mm 4 mps 728 mmHg 67%
    11:00 +33°C° 0 mm 4 mps 727 mmHg 60%
    12:00 +35°C° 0 mm 4 mps 727 mmHg 54%
    13:00 +36°C° 0 mm 3 mps 726 mmHg 50%
    14:00 +37°C° 0 mm 3 mps 725 mmHg 47%
    15:00 +38°C° 0 mm 3 mps 725 mmHg 43%
    16:00 +36°C° 0.1 mm 3 mps 725 mmHg 47%
    17:00 +35°C° 0.1 mm 3 mps 726 mmHg 51%
    18:00 +34°C° 0.1 mm 3 mps 726 mmHg 55%
    19:00 +31°C° 4.4 mm 3 mps 727 mmHg 67%
    20:00 +29°C° 4.4 mm 3 mps 727 mmHg 78%
    21:00 +27°C° 4.4 mm 4 mps 728 mmHg 89%
    22:00 +26°C° 0.7 mm 4 mps 728 mmHg 90%
    23:00 +26°C° 0.7 mm 4 mps 727 mmHg 90%

    31 May, Friday

    Time Temperature Precipitation Wind Pressure Humidity
    00:00 +26°C° 0.7 mm 4 mps 727 mmHg 91%
    01:00 +26°C° 0 mm 3 mps 726 mmHg 91%
    02:00 +26°C° 0 mm 3 mps 726 mmHg 91%
    03:00 +26°C° 0 mm 2 mps 726 mmHg 92%
    04:00 +26°C° 0 mm 2 mps 726 mmHg 91%
    05:00 +26°C° 0 mm 2 mps 727 mmHg 91%
    06:00 +26°C° 0 mm 2 mps 727 mmHg 90%
    07:00 +27°C° 0 mm 3 mps 727 mmHg 87%
    08:00 +27°C° 0 mm 3 mps 728 mmHg 83%
    09:00 +28°C° 0 mm 4 mps 728 mmHg 79%
    10:00 +30°C° 0 mm 3 mps 728 mmHg 70%
    11:00 +32°C° 0 mm 2 mps 727 mmHg 60%
    12:00 +35°C° 0 mm 2 mps 727 mmHg 51%
    13:00 +35°C° 0 mm 2 mps 726 mmHg 50%
    14:00 +35°C° 0 mm 2 mps 726 mmHg 48%
    15:00 +36°C° 0 mm 2 mps 725 mmHg 47%
    16:00 +34°C° 1.1 mm 2 mps 725 mmHg 57%
    17:00 +31°C° 1.1 mm 2 mps 725 mmHg 66%
    18:00 +29°C° 1.1 mm 3 mps 726 mmHg 76%
    19:00 +28°C° 0.5 mm 3 mps 726 mmHg 80%
    20:00 +27°C° 0.5 mm 3 mps 727 mmHg 84%
    21:00 +26°C° 0.5 mm 3 mps 727 mmHg 89%
    22:00 +26°C° 0 mm 3 mps 727 mmHg 90%
    23:00 +26°C° 0 mm 3 mps 727 mmHg 91%

    1 June, Saturday

    Time Temperature Precipitation Wind Pressure Humidity
    00:00 +26°C° 0 mm 3 mps 726 mmHg 92%
    01:00 +25°C° 0 mm 3 mps 726 mmHg 92%
    02:00 +25°C° 0 mm 3 mps 726 mmHg 92%
    03:00 +25°C° 0 mm 3 mps 726 mmHg 92%
    04:00 +25°C° 0 mm 3 mps 726 mmHg 92%
    05:00 +25°C° 0 mm 2 mps 726 mmHg 92%
    06:00 +25°C° 0 mm 2 mps 727 mmHg 91%
    07:00 +26°C° 0 mm 2 mps 727 mmHg 83%
    08:00 +28°C° 0 mm 3 mps 728 mmHg 76%
    09:00 +29°C° 0 mm 3 mps 728 mmHg 68%
    10:00 +31°C° 0 mm 3 mps 727 mmHg 60%
    11:00 +34°C° 0 mm 2 mps 727 mmHg 52%
    12:00 +36°C° 0 mm 2 mps 726 mmHg 44%
    13:00 +35°C° 0 mm 1 mps 726 mmHg 45%
    14:00 +34°C° 0 mm 1 mps 725 mmHg 45%
    15:00 +32°C° 0 mm 0 mps 725 mmHg 46%
    16:00 +33°C° 0 mm 1 mps 725 mmHg 51%
    17:00 +32°C° 0 mm 1 mps 725 mmHg 56%
    18:00 +31°C° 0 mm 1 mps 726 mmHg 60%
    19:00 +29°C° 1.7 mm 2 mps 726 mmHg 69%
    20:00 +28°C° 1.7 mm 2 mps 727 mmHg 77%
    21:00 +27°C° 1.7 mm 3 mps 727 mmHg 85%
    22:00 +26°C° 0.2 mm 3 mps 727 mmHg 87%
    23:00 +26°C° 0.2 mm 2 mps 727 mmHg 90%
    Show more